EW8215 Weather Reports


time (UTC)temp
F
wind
direction
speed
knots
gust
knots
rain 1hr
in
rain 24hr
in
rain mn
in
humidity
%
barometer
mb
20211017165504 71 119 2.6 7.0 0.00 0.00 0.00 39 1027.1
20211017165004 71 97 0.9 1.7 0.00 0.00 0.00 40 1027.1
20211017164504 71 47 0.9 4.3 0.00 0.00 0.00 37 1027.1
20211017164004 71 125 0.9 7.0 0.00 0.00 0.00 40 1027.4
20211017163504 71 86 0.9 4.3 0.00 0.00 0.00 42 1027.4
20211017163004 70 146 2.6 7.0 0.00 0.00 0.00 47 1027.4
20211017162504 70 146 1.7 4.3 0.00 0.00 0.00 44 1027.4
20211017162004 69 104 0.9 4.3 0.00 0.00 0.00 42 1027.8
20211017161503 69 122 0.9 4.3 0.00 0.00 0.00 46 1027.8
20211017161005 68 75 0.9 1.7 0.00 0.00 0.00 46 1027.8
20211017160504 67 120 0.0 4.3 0.00 0.00 0.00 53 1027.8
20211017160004 66 137 0.9 4.3 0.00 0.00 0.00 49 1027.8
20211017155504 65 136 2.6 4.3 0.00 0.00 0.00 53 1027.8
20211017155004 64 153 0.0 1.7 0.00 0.00 0.00 58 1027.8
20211017154504 63 148 0.0 0.0 0.00 0.00 0.00 59 1027.8
20211017154005 62 98 0.0 1.7 0.00 0.00 0.00 63 1027.8
20211017153504 62 357 0.9 1.7 0.00 0.00 0.00 67 1027.8
20211017153005 61 137 0.9 4.3 0.00 0.00 0.00 72 1027.8
20211017152504 60 333 0.9 4.3 0.00 0.00 0.00 71 1028.1
20211017152004 59 20 0.9 4.3 0.00 0.00 0.00 74 1028.1
20211017151504 59 191 0.9 1.7 0.00 0.00 0.00 77 1028.1
20211017151004 58 111 0.0 0.0 0.00 0.00 0.00 77 1028.1
20211017150504 57 225 0.0 0.0 0.00 0.00 0.00 81 1028.1
20211017150004 56 180 0.0 1.7 0.00 0.00 0.00 83 1028.1
20211017145504 55 23 0.9 1.7 0.00 0.00 0.00 83 1028.1
20211017145004 54 355 0.9 1.7 0.00 0.00 0.00 84 1027.8
20211017144504 54 269 0.9 1.7 0.00 0.00 0.00 86 1027.8
20211017144004 53 129 0.9 1.7 0.00 0.00 0.00 86 1027.8
20211017143504 53 96 0.0 0.0 0.00 0.00 0.00 85 1027.8
20211017143004 52 338 0.0 0.0 0.00 0.00 0.00 88 1027.8
20211017142504 52 121 0.0 1.7 0.00 0.00 0.00 91 1027.8
20211017142004 51 333 1.7 1.7 0.00 0.00 0.00 90 1027.8
20211017141504 51 311 0.9 1.7 0.00 0.00 0.00 91 1027.8
20211017141004 51 35 0.0 1.7 0.00 0.00 0.00 92 1027.8
20211017140504 50 302 0.0 0.0 0.00 0.00 0.00 93 1027.8
20211017140004 50 335 0.0 0.0 0.00 0.00 0.00 93 1027.4
20211017135504 49 17 0.0 0.0 0.00 0.00 0.00 94 1027.4
20211017135004 49 167 0.0 0.0 0.00 0.00 0.00 95 1027.4
20211017134504 48 175 0.0 0.0 0.00 0.00 0.00 97 1027.4
20211017134004 48 181 0.0 0.0 0.00 0.00 0.00 98 1027.4
20211017133505 47 223 0.0 0.0 0.00 0.00 0.00 98 1027.4
20211017133004 47 218 0.0 1.7 0.00 0.00 0.00 99 1027.4
20211017132504 46 224 0.0 1.7 0.00 0.00 0.00 99 1027.1
20211017132004 46 185 0.0 0.0 0.00 0.00 0.00 99 1027.1
20211017131504 45 218 0.0 0.0 0.00 0.00 0.00 99 1027.1
20211017131004 45 204 0.0 0.0 0.00 0.00 0.00 99 1027.1
20211017130505 45 161 0.0 0.0 0.00 0.00 0.00 99 1026.8
20211017130004 45 152 0.0 0.0 0.00 0.00 0.00 99 1026.8
20211017125504 45 125 0.0 0.0 0.00 0.00 0.00 99 1026.8
20211017125004 45 123 0.0 0.0 0.00 0.00 0.00 99 1026.8
20211017124504 45 119 0.0 0.0 0.00 0.00 0.00 99 1027.1
20211017124005 45 114 0.0 0.0 0.00 0.00 0.00 99 1026.8
20211017123504 45 121 0.0 0.0 0.00 0.00 0.00 99 1026.8
20211017123004 45 214 0.0 0.0 0.00 0.00 0.00 99 1026.8
20211017122504 45 156 0.0 0.0 0.00 0.00 0.00 99 1026.8
20211017122004 45 117 0.0 0.0 0.00 0.00 0.00 99 1026.8
20211017121504 45 112 0.0 0.0 0.00 0.00 0.00 99 1026.8
20211017121004 45 3 0.0 0.0 0.00 0.00 0.00 99 1026.8
20211017120504 45 78 0.0 0.0 0.00 0.00 0.00 99 1026.8
20211017120004 45 79 0.0 0.0 0.00 0.00 0.00 99 1026.8
20211017115504 45 126 0.0 0.0 0.00 0.00 0.00 99 1026.8
20211017115004 45 145 0.0 0.0 0.00 0.00 0.00 99 1026.8
20211017114504 45 149 0.0 0.0 0.00 0.00 0.00 99 1026.8
20211017114004 45 130 0.0 0.0 0.00 0.00 0.00 99 1026.8
20211017113504 45 146 0.0 0.0 0.00 0.00 0.00 99 1026.8
20211017113004 45 158 0.0 0.0 0.00 0.00 0.00 99 1026.8
20211017112507 45 148 0.0 0.0 0.00 0.00 0.00 99 1026.8
20211017112004 45 122 0.0 0.0 0.00 0.00 0.00 99 1026.8
20211017111504 45 100 0.0 0.0 0.00 0.00 0.00 99 1026.8
20211017111004 45 136 0.0 0.0 0.00 0.00 0.00 99 1026.4
20211017110504 44 165 0.0 0.0 0.00 0.00 0.00 99 1026.7
20211017110004 45 155 0.0 0.0 0.00 0.00 0.00 99 1026.4
20211017105504 45 165 0.0 0.0 0.00 0.00 0.00 99 1026.4
20211017105004 45 127 0.0 0.0 0.00 0.00 0.00 98 1026.4
20211017104503 45 125 0.0 0.0 0.00 0.00 0.00 98 1026.4
20211017104004 45 114 0.0 0.0 0.00 0.00 0.00 98 1026.4
20211017103505 46 126 0.0 0.0 0.00 0.00 0.00 98 1026.4
20211017103004 46 115 0.0 0.0 0.00 0.00 0.00 98 1026.4
20211017102504 46 126 0.0 0.0 0.00 0.00 0.00 98 1026.3
20211017102005 46 132 0.0 0.0 0.00 0.00 0.00 98 1026.4
20211017101504 46 124 0.0 0.0 0.00 0.00 0.00 98 1026.4
20211017101005 46 135 0.0 0.0 0.00 0.00 0.00 98 1026.4
20211017100504 46 121 0.0 0.0 0.00 0.00 0.00 98 1026.4
20211017100004 46 114 0.0 0.0 0.00 0.00 0.00 98 1026.1
20211017095504 46 118 0.0 0.0 0.00 0.00 0.00 98 1026.4
20211017095004 46 114 0.0 0.0 0.00 0.00 0.00 97 1026.4
20211017094504 46 127 0.0 0.0 0.00 0.00 0.00 97 1026.4
20211017094004 47 145 0.0 0.0 0.00 0.00 0.00 97 1026.7
20211017093505 47 162 0.0 0.0 0.00 0.00 0.00 97 1026.4
20211017093004 47 169 0.0 0.0 0.00 0.00 0.00 97 1026.8
20211017092503 47 138 0.0 0.0 0.00 0.00 0.00 97 1026.5
20211017092004 47 142 0.0 0.0 0.00 0.00 0.00 97 1026.4
20211017091504 47 159 0.0 0.0 0.00 0.00 0.00 97 1026.4
20211017091004 47 147 0.0 0.0 0.00 0.00 0.00 97 1026.8
20211017090504 47 152 0.0 0.0 0.00 0.00 0.00 97 1026.4
20211017090005 47 338 0.0 0.0 0.00 0.00 0.00 97 1026.4
20211017085504 47 118 0.0 0.0 0.00 0.00 0.00 96 1026.8
20211017085004 47 145 0.0 0.0 0.00 0.00 0.00 96 1026.8
20211017084504 47 139 0.0 0.0 0.00 0.00 0.00 96 1026.8
20211017084003 47 144 0.0 0.0 0.00 0.00 0.00 96 1026.8
20211017083504 47 140 0.0 0.0 0.00 0.00 0.00 96 1026.8
20211017083004 47 160 0.0 0.0 0.00 0.00 0.00 95 1026.8
20211017082504 47 144 0.0 0.0 0.00 0.00 0.00 95 1026.8
20211017082004 47 111 0.0 0.0 0.00 0.00 0.00 95 1026.8
20211017081504 47 213 0.0 0.0 0.00 0.00 0.00 95 1026.8
20211017081004 47 197 0.0 0.0 0.00 0.00 0.00 95 1027.1
20211017080504 47 166 0.0 0.0 0.00 0.00 0.00 95 1026.8
20211017080005 47 128 0.0 0.0 0.00 0.00 0.00 94 1026.8
20211017075504 47 119 0.0 0.0 0.00 0.00 0.00 94 1026.8
20211017075004 48 172 0.0 0.0 0.00 0.00 0.00 95 1026.8
20211017074504 48 150 0.0 0.0 0.00 0.00 0.00 94 1026.8
20211017074004 48 129 0.0 0.0 0.00 0.00 0.00 94 1026.8
20211017073504 48 173 0.0 0.0 0.00 0.00 0.00 94 1026.8
20211017073004 48 133 0.0 0.0 0.00 0.00 0.00 94 1026.8
20211017072504 48 177 0.0 0.0 0.00 0.00 0.00 94 1026.8
20211017072004 48 165 0.0 0.0 0.00 0.00 0.00 94 1026.8
20211017071504 48 270 0.0 1.7 0.00 0.00 0.00 94 1026.8
20211017071004 48 165 0.0 0.0 0.00 0.00 0.00 94 1026.8
20211017070505 48 193 0.0 0.0 0.00 0.00 0.00 94 1026.8
20211017070004 48 182 0.0 0.0 0.00 0.00 0.00 94 1026.4
20211017065504 48 350 0.0 0.0 0.00 0.00 0.00 94 1026.4
20211017065004 48 324 0.0 1.7 0.00 0.00 0.00 95 1026.8
20211017064504 48 81 0.0 0.0 0.00 0.00 0.00 95 1026.4
20211017064004 48 167 0.0 0.0 0.00 0.00 0.00 94 1026.8
20211017063504 48 125 0.0 0.0 0.00 0.00 0.00 93 1026.4
20211017063004 48 135 0.0 0.0 0.00 0.00 0.00 93 1026.4
20211017062503 49 185 0.0 0.0 0.00 0.00 0.00 94 1026.4
20211017062004 49 208 0.0 0.0 0.00 0.00 0.00 93 1026.7
20211017061503 49 147 0.0 0.0 0.00 0.00 0.00 93 1026.4
20211017061004 49 129 0.0 0.0 0.00 0.00 0.00 93 1026.4
20211017060504 49 214 0.0 0.0 0.00 0.00 0.00 93 1026.4
20211017060004 49 141 0.0 0.0 0.00 0.00 0.00 92 1026.4
20211017055504 49 60 0.0 0.0 0.00 0.00 0.00 92 1026.4
20211017055004 49 131 0.0 0.0 0.00 0.00 0.00 92 1026.5
20211017054504 49 328 0.0 0.0 0.00 0.00 0.00 92 1026.8
20211017054004 49 334 0.0 1.7 0.00 0.00 0.00 92 1026.8
20211017053504 50 342 0.0 0.0 0.00 0.00 0.00 93 1026.7
20211017053004 50 116 0.0 0.0 0.00 0.00 0.00 91 1026.8
20211017052504 50 96 0.0 0.0 0.00 0.00 0.00 90 1026.8
20211017052004 51 115 0.0 0.0 0.00 0.00 0.00 89 1026.8
20211017051504 51 144 0.0 0.0 0.00 0.00 0.00 87 1026.8
20211017051004 51 136 0.0 0.0 0.00 0.00 0.00 85 1026.8
20211017050504 51 124 0.0 0.0 0.00 0.00 0.00 83 1026.8
20211017050005 51 145 0.0 0.0 0.00 0.00 0.00 83 1026.8
20211017045504 51 129 0.0 0.0 0.00 0.00 0.00 83 1026.8
20211017045005 51 97 0.0 0.0 0.00 0.00 0.00 82 1026.8
20211017044504 51 108 0.0 0.0 0.00 0.00 0.00 83 1026.8
20211017044005 51 117 0.0 0.0 0.00 0.00 0.00 82 1026.8
20211017043504 51 118 0.0 0.0 0.00 0.00 0.00 81 1026.8
20211017043005 52 114 0.0 0.0 0.00 0.00 0.00 80 1026.8
20211017042504 52 169 0.0 0.0 0.00 0.00 0.00 80 1026.8
20211017042005 53 161 0.0 0.0 0.00 0.00 0.00 78 1026.8
20211017041504 53 142 0.0 0.0 0.00 0.00 0.00 77 1026.8
20211017041003 54 133 0.0 1.7 0.00 0.00 0.00 79 1026.8
20211017040504 55 127 0.0 0.0 0.00 0.00 0.00 75 1026.7
20211017040003 56 118 0.0 0.0 0.00 0.00 0.00 76 1026.4
20211017035504 56 60 0.0 4.3 0.00 0.00 0.00 75 1026.4
20211017035004 56 137 0.0 1.7 0.00 0.00 0.00 71 1026.4
20211017034504 56 71 0.9 1.7 0.00 0.00 0.00 57 1026.4
20211017034004 54 86 0.0 1.7 0.00 0.00 0.00 59 1026.4
20211017033504 53 89 0.9 1.7 0.00 0.00 0.00 60 1026.4
20211017033004 53 81 0.9 1.7 0.00 0.00 0.00 67 1026.4
20211017032504 52 71 0.0 0.0 0.00 0.00 0.00 74 1026.8
20211017032004 52 98 0.0 0.0 0.00 0.00 0.00 76 1026.4
20211017031505 52 112 0.0 0.0 0.00 0.00 0.00 75 1026.8
20211017031004 52 123 0.0 0.0 0.00 0.00 0.00 73 1026.8
20211017030504 52 123 0.0 0.0 0.00 0.00 0.00 73 1026.4
20211017030004 53 118 0.0 0.0 0.00 0.00 0.00 72 1026.4
20211017025503 53 122 0.0 0.0 0.00 0.00 0.00 73 1026.4
20211017025004 53 103 0.0 0.0 0.00 0.00 0.00 73 1026.4
20211017024504 54 125 0.0 0.0 0.00 0.00 0.00 74 1026.5
20211017024005 54 124 0.0 0.0 0.00 0.00 0.00 72 1026.8
20211017023504 55 123 0.0 0.0 0.00 0.00 0.00 70 1026.4
20211017023004 55 125 0.0 0.0 0.00 0.00 0.00 69 1026.4
20211017022504 56 135 0.0 0.0 0.00 0.00 0.00 69 1026.4
20211017022004 56 68 0.0 0.0 0.00 0.00 0.00 69 1026.4
20211017021504 56 121 0.0 0.0 0.00 0.00 0.00 70 1026.4
20211017021005 57 117 0.0 0.0 0.00 0.00 0.00 68 1026.4
20211017020504 57 117 0.0 0.0 0.00 0.00 0.00 67 1026.1
20211017020005 57 105 0.0 0.0 0.00 0.00 0.00 63 1026.1
20211017015507 57 110 0.0 1.7 0.00 0.00 0.00 62 1026.1
20211017015004 57 117 0.0 0.0 0.00 0.00 0.00 65 1026.4
20211017014504 57 121 0.0 1.7 0.00 0.00 0.00 62 1026.3
20211017014005 57 101 0.0 0.0 0.00 0.00 0.00 65 1026.1
20211017013504 58 102 0.0 1.7 0.00 0.00 0.00 64 1026.1
20211017013004 58 115 0.0 1.7 0.00 0.00 0.00 62 1026.1
20211017012504 58 311 0.0 0.0 0.00 0.00 0.00 63 1026.1
20211017012005 59 111 0.0 0.0 0.00 0.00 0.00 65 1026.1
20211017011504 59 75 0.0 0.0 0.00 0.00 0.00 64 1026.1
20211017011005 59 357 0.0 1.7 0.00 0.00 0.00 61 1026.1
20211017010504 60 319 0.0 1.7 0.00 0.00 0.00 59 1026.1
20211017010005 60 53 0.0 0.0 0.00 0.00 0.00 56 1026.1
20211017005504 60 41 0.9 1.7 0.00 0.00 0.00 56 1026.1
20211017005004 60 128 0.0 1.7 0.00 0.00 0.00 58 1025.7
20211017004504 61 80 0.0 1.7 0.00 0.00 0.00 58 1026.1
20211017004004 61 106 0.0 1.7 0.00 0.00 0.00 56 1025.7
20211017003504 62 55 0.0 1.7 0.00 0.00 0.00 55 1025.7
20211017003005 62 354 0.9 1.7 0.00 0.00 0.00 53 1025.7
20211017002504 62 332 0.0 0.0 0.00 0.00 0.00 52 1025.7
20211017002004 63 101 0.0 0.0 0.00 0.00 0.00 52 1025.7
20211017001504 64 343 0.0 1.7 0.00 0.00 0.00 50 1025.7
20211017001004 65 96 0.0 1.7 0.00 0.00 0.00 51 1025.7
20211017000504 66 106 0.0 0.0 0.00 0.00 0.00 49 1025.7
20211017000004 66 102 0.0 1.7 0.00 0.00 0.00 46 1025.7
20211016235504 67 89 0.9 4.3 0.00 0.00 0.00 44 1025.7
20211016235004 68 9 1.7 7.0 0.00 0.00 0.00 43 1025.7
20211016234504 68 321 0.9 4.3 0.00 0.00 0.00 43 1025.7
20211016234004 69 23 1.7 4.3 0.00 0.00 0.00 40 1025.7
20211016233504 69 70 0.9 4.3 0.00 0.00 0.00 39 1025.7
20211016233004 70 357 3.5 7.0 0.00 0.00 0.00 38 1025.7
20211016232504 70 285 2.6 7.0 0.00 0.00 0.00 38 1025.7
20211016232004 70 20 0.9 4.3 0.00 0.00 0.00 38 1025.7
20211016231504 71 91 1.7 7.0 0.00 0.00 0.00 37 1025.7
20211016231004 71 67 2.6 7.0 0.00 0.00 0.00 35 1025.7
20211016230504 71 0 4.3 8.7 0.00 0.00 0.00 36 1025.7
20211016230004 72 38 5.2 8.7 0.00 0.00 0.00 34 1025.7
20211016225504 72 30 5.2 11.3 0.00 0.00 0.00 34 1025.7
20211016225004 72 347 5.2 8.7 0.00 0.00 0.00 33 1025.7
20211016224504 72 321 5.2 13.0 0.00 0.00 0.00 33 1025.7
20211016224004 73 64 1.7 8.7 0.00 0.00 0.00 35 1025.7
20211016223504 73 0 5.2 8.7 0.00 0.00 0.00 32 1025.7
20211016223004 73 337 5.2 11.3 0.00 0.00 0.00 32 1025.7
20211016222504 73 353 5.2 8.7 0.00 0.00 0.00 34 1025.7
20211016222004 73 301 3.5 8.7 0.00 0.00 0.00 33 1025.7
20211016221504 73 52 5.2 13.0 0.00 0.00 0.00 31 1025.7
20211016221004 73 12 7.0 11.3 0.00 0.00 0.00 31 1025.7
20211016220504 73 4 5.2 8.7 0.00 0.00 0.00 30 1025.7
20211016220004 73 224 5.2 11.3 0.00 0.00 0.00 32 1025.7
20211016215505 73 304 4.3 11.3 0.00 0.00 0.00 33 1025.7
20211016215004 73 13 4.3 13.0 0.00 0.00 0.00 33 1025.7
20211016214504 73 343 5.2 11.3 0.00 0.00 0.00 32 1025.7
20211016214004 73 315 5.2 13.0 0.00 0.00 0.00 31 1025.7
20211016213503 73 3 4.3 11.3 0.00 0.00 0.00 31 1025.7
20211016213004 73 359 7.8 13.0 0.00 0.00 0.00 30 1025.7
20211016212504 73 357 6.1 13.0 0.00 0.00 0.00 32 1026.1
20211016212004 73 22 1.7 13.0 0.00 0.00 0.00 34 1025.8
20211016211504 74 355 9.6 13.0 0.00 0.00 0.00 31 1025.7
20211016211004 74 113 4.3 8.7 0.00 0.00 0.00 31 1025.7
20211016210504 74 339 7.8 13.0 0.00 0.00 0.00 32 1025.7
20211016210004 74 85 6.1 11.3 0.00 0.00 0.00 35 1025.7
20211016205504 74 34 3.5 11.3 0.00 0.00 0.00 34 1025.8
20211016205005 74 75 5.2 8.7 0.00 0.00 0.00 34 1025.7
20211016204504 74 88 3.5 11.3 0.00 0.00 0.00 31 1026.1
20211016204004 74 311 4.3 11.3 0.00 0.00 0.00 30 1026.1
20211016203504 73 21 5.2 8.7 0.00 0.00 0.00 32 1026.1
20211016203004 73 58 6.1 13.0 0.00 0.00 0.00 34 1026.1
20211016202504 73 80 3.5 13.0 0.00 0.00 0.00 34 1026.1
20211016202004 73 24 6.1 13.0 0.00 0.00 0.00 35 1026.1
20211016201504 73 19 2.6 7.0 0.00 0.00 0.00 35 1026.1
20211016201005 73 72 4.3 8.7 0.00 0.00 0.00 39 1026.1
20211016200504 73 67 2.6 13.0 0.00 0.00 0.00 36 1026.4
20211016200005 73 73 4.3 11.3 0.00 0.00 0.00 36 1026.1
20211016195504 73 344 7.0 13.0 0.00 0.00 0.00 38 1026.4
20211016195004 73 328 4.3 11.3 0.00 0.00 0.00 37 1026.4
20211016194504 72 61 4.3 11.3 0.00 0.00 0.00 36 1026.4
20211016194004 72 57 4.3 8.7 0.00 0.00 0.00 36 1026.8
20211016193504 72 342 2.6 8.7 0.00 0.00 0.00 37 1026.8
20211016193004 71 354 4.3 8.7 0.00 0.00 0.00 44 1026.8
20211016192504 71 312 1.7 13.0 0.00 0.00 0.00 39 1026.8
20211016192004 71 358 8.7 13.0 0.00 0.00 0.00 40 1026.8
20211016191504 71 339 3.5 13.0 0.00 0.00 0.00 41 1026.8
20211016191004 71 353 6.1 11.3 0.00 0.00 0.00 43 1027.1
20211016190504 71 344 7.8 13.0 0.00 0.00 0.00 43 1027.1
20211016190004 71 6 9.6 14.8 0.00 0.00 0.00 40 1027.1
20211016185504 71 345 4.3 11.3 0.00 0.00 0.00 40 1027.1
20211016185004 71 104 4.3 11.3 0.00 0.00 0.00 40 1027.1
20211016184504 71 326 4.3 13.0 0.00 0.00 0.00 42 1027.1
20211016184005 71 41 3.5 8.7 0.00 0.00 0.00 43 1027.4
20211016183504 71 97 2.6 11.3 0.00 0.00 0.00 40 1027.8
20211016183004 71 51 9.6 13.0 0.00 0.00 0.00 39 1027.8
20211016182504 70 100 5.2 8.7 0.00 0.00 0.00 38 1027.8
20211016182004 70 72 5.2 11.3 0.00 0.00 0.00 44 1027.8
20211016181504 70 66 6.1 11.3 0.00 0.00 0.00 40 1027.8
20211016181005 70 65 6.1 11.3 0.00 0.00 0.00 39 1027.8
20211016180504 70 66 3.5 14.8 0.00 0.00 0.00 42 1028.1
20211016180004 70 9 7.8 18.2 0.00 0.00 0.00 44 1028.1
20211016175504 70 13 5.2 14.8 0.00 0.00 0.00 43 1028.4
20211016175005 70 69 7.8 11.3 0.00 0.00 0.00 42 1028.4
20211016174504 70 62 7.0 13.0 0.00 0.00 0.00 44 1028.4
20211016174004 70 79 6.1 13.0 0.00 0.00 0.00 43 1028.1
20211016173504 69 75 7.8 14.8 0.00 0.00 0.00 42 1028.4
20211016173004 69 38 5.2 13.0 0.00 0.00 0.00 42 1028.4
20211016172504 69 63 2.6 11.3 0.00 0.00 0.00 46 1028.4
20211016172004 69 70 6.1 13.0 0.00 0.00 0.00 43 1028.8
20211016171504 69 68 6.1 13.0 0.00 0.00 0.00 43 1028.8
20211016171004 69 42 6.1 11.3 0.00 0.00 0.00 44 1028.8
20211016170504 68 70 2.6 13.0 0.00 0.00 0.00 49 1028.8
20211016170004 68 88 6.1 14.8 0.00 0.00 0.00 43 1028.8